(29) Amphitrite
ephemeris date magn radius delta ra dec elong phase
Today2 Jun 202311.22.515 AU2.649 AU00h01m-01°54'71.3°22.5°
Opposition1 Oct 20238.82.428 AU1.427 AU00h28m+05°24'177.7°1.0°
(29) Amphitrite - 2023-06-02
astro.vanbuitenen.nl


 
-1 year
-1 month
-1 day
Now
+1 day
+1 month
+1 year

The interactive orbit chart above shows the body's path through the solar system and its position at the given date. Green and blue lines are shown perpendicular to the ecliptic plane: Green if the path is above the ecliptic plane, blue if it is below. (Left-click and drag to rotate the view; Right-click and drag to move the view; Use scroll wheel to zoom in our out.)

The orbital elements of Amphitrite are:

            e (Eccentricity)                : 0.0735834
            a (Semimajor axis)              : 2.5537453
            i (Inclination)                 : 6.08277
            Ω (Longitude of ascending node) : 356.32927
            ω (Argument of perihelion)      : 63.06314
            M (Mean anomaly)                : 214.21272
            Epoch                           : 2022 Aug 09

            L (Longitude of perihelion)     : 59.26155
            B (Latitude of perihelion)      : 5.42073
            P (Orbital period in years)     : 4.08            
        

The light curve chart below shows the estimated development of the minor planet's magnitude.


The all-sky chart below shows the path of the minor planet over the same period as the light curve. The current position is marked yellow.





The following chart shows the path of the minor planet in the next few days. The field of view is optimized for (~10x50) binoculars and finderscopes. A more printer-friendly version of the same chart can be found below.




Ephemerides:
Date       Time       RA (2000)    DEC (2000)    delta   radius  elong  phase   PA    magn
2023-06-02 00:00 UT   00 01 35.5   -01 54 16     2.649    2.515   71.3   22.5   246   11.2 
2023-06-02 21:40 UT   00 02 42.3   -01 46 07     2.638    2.515   71.9   22.5   246   11.2 
2023-06-03 00:00 UT   00 02 49.5   -01 45 15     2.637    2.514   71.9   22.5   246   11.2 
2023-06-04 00:00 UT   00 04 02.9   -01 36 17     2.624    2.514   72.6   22.6   246   11.1 
2023-06-05 00:00 UT   00 05 15.9   -01 27 22     2.611    2.513   73.2   22.7   246   11.1 
2023-06-06 00:00 UT   00 06 28.3   -01 18 30     2.599    2.512   73.8   22.8   246   11.1 
2023-06-07 00:00 UT   00 07 40.1   -01 09 40     2.586    2.511   74.4   22.9   246   11.1 
2023-06-08 00:00 UT   00 08 51.4   -01 00 54     2.573    2.511   75.0   23.0   246   11.1 
2023-06-09 00:00 UT   00 10 02.2   +00 52 10     2.560    2.510   75.7   23.1   246   11.1 
2023-06-10 00:00 UT   00 11 12.4   +00 43 30     2.547    2.509   76.3   23.1   246   11.1 
2023-06-11 00:00 UT   00 12 22.0   +00 34 53     2.535    2.508   76.9   23.2   246   11.1 
2023-06-12 00:00 UT   00 13 31.0   +00 26 19     2.522    2.507   77.6   23.3   246   11.1 
2023-06-13 00:00 UT   00 14 39.4   +00 17 49     2.509    2.507   78.2   23.4   246   11.1 
2023-06-14 00:00 UT   00 15 47.2   +00 09 22     2.496    2.506   78.8   23.4   246   11.1 
2023-06-15 00:00 UT   00 16 54.4   +00 00 58     2.483    2.505   79.5   23.5   246   11.0 
2023-06-16 00:00 UT   00 18 00.9   +00 07 22     2.470    2.504   80.1   23.6   246   11.0 
2023-06-17 00:00 UT   00 19 06.8   +00 15 38     2.457    2.504   80.8   23.6   246   11.0 
2023-06-18 00:00 UT   00 20 12.0   +00 23 51     2.444    2.503   81.4   23.7   246   11.0 
2023-06-19 00:00 UT   00 21 16.5   +00 31 59     2.431    2.502   82.1   23.7   246   11.0 
2023-06-20 00:00 UT   00 22 20.3   +00 40 04     2.417    2.501   82.7   23.8   246   11.0 
2023-06-21 00:00 UT   00 23 23.5   +00 48 05     2.404    2.500   83.4   23.8   247   11.0 
2023-06-22 00:00 UT   00 24 25.9   +00 56 02     2.391    2.500   84.1   23.9   247   11.0 
2023-06-23 00:00 UT   00 25 27.6   +01 03 56     2.378    2.499   84.7   23.9   247   11.0 
2023-06-24 00:00 UT   00 26 28.6   +01 11 45     2.365    2.498   85.4   23.9   247   10.9 
2023-06-25 00:00 UT   00 27 28.8   +01 19 29     2.352    2.497   86.1   24.0   247   10.9 
2023-06-26 00:00 UT   00 28 28.3   +01 27 10     2.339    2.497   86.7   24.0   247   10.9 
2023-06-27 00:00 UT   00 29 27.0   +01 34 46     2.326    2.496   87.4   24.0   247   10.9 
2023-06-28 00:00 UT   00 30 25.0   +01 42 18     2.312    2.495   88.1   24.0   247   10.9 
2023-06-29 00:00 UT   00 31 22.1   +01 49 46     2.299    2.494   88.8   24.0   247   10.9 


    Terminology:
            
    delta:  distance between minor planet and earth in AU
    radius: distance between minor planet and sun in AU
    magn:   magnitude (brightness) estimate    
    ra:     right ascension in hours (24h = 360deg)
    dec:    declination in degrees
    elong:  elongation in degrees (angle sun-earth-minor planet)    
    phase:  phase angle in degrees (angle sun-minor planet-earth)        
    AU:     Astronomical Unit (mean distance between earth and sun: 149597870.7 km
    

Orbital elements provided by the MPC (Minor Planet Center).
Calculations by a modified version of AAPlus, a C# implementation of the AA+ project by PJ Naughter from the algorithms presented in the book "Astronomical Algorithms" by Jean Meeus.
NGC2000 dso catalog and star labels from VizieR as provided by the Strasbourg astronomical Data Center.
Tycho2 catalog from the ESO archive.